Home   Weather   Roanoke   Past weeks

Flag for USA Past Weather in Roanoke, Virginia, USA — Yesterday and Last 2 Weeks

Now
67 °F

Partly cloudy.


Feels Like: 67 °F
Forecast: 61 / 76 °F
Wind: 5 mph from Southeast

Location: Roanoke Regional Airport

Current Time: Sep 26, 2016 at 9:56:45 PM

Latest Report: Sep 26, 2016 at 8:54 PM


Visibility: 3 mi

Pressure: 30.04 "Hg

Humidity: 100%

Dew Point: 67 °F

Location of RoanokeLocation

Past Weather in Roanoke — Graph

°F

Roanoke Temperature Yesterday

Maximum temperature yesterday: 72 °F (at 1:54 AM)
Minimum temperature yesterday: 65 °F (at 11:54 PM)
Average temperature yesterday: 69 °F

High & Low Weather Summary for the Past Weeks

 TemperatureHumidityPressure
High92 °F (Sep 14, 3:54 PM)100% (Sep 19, 5:54 AM)30.29 "Hg (Sep 19, 5:54 AM)
Low59 °F (Sep 12, 5:54 AM)32% (Sep 14, 3:54 PM)29.97 "Hg (Sep 19, 3:54 PM)
Average73 °F73%30.12 "Hg
* Reported Sep 11 8:54 PM — Sep 26 8:54 PM, Roanoke, Weather by CustomWeather, © 2016

Note: Actual official high and low records may vary slightly from our data, if they occured in-between our weather recording intervals... More about our weather records

Advertising

Roanoke Weather History for the Previous 24 Hours

Scroll right to see more
 ConditionsComfort  
Time TempWeatherWind HumidityBarometerVisibility
8:54 PM
Mon, Sep 26
67 °FPartly cloudy.5 mph100%30.04 "Hg3 mi
7:54 PM67 °FLight rain. Passing clouds.3 mph100%30.02 "Hg3 mi
6:54 PM68 °FLight rain. Fog.7 mph96%30.03 "Hg3 mi
5:54 PM68 °FLight rain. Fog.8 mph96%30.00 "Hg3 mi
4:54 PM68 °FLight rain. Fog.6 mph96%30.00 "Hg5 mi
3:54 PM68 °FLight rain. Low clouds.9 mph93%30.01 "Hg7 mi
2:54 PM68 °FLow clouds.8 mph90%30.04 "Hg10 mi
1:54 PM69 °FOvercast.10 mph87%30.06 "Hg10 mi
12:54 PM68 °FLow clouds.10 mph90%30.09 "Hg10 mi
11:54 AM67 °FLow clouds.8 mph90%30.11 "Hg10 mi
10:54 AM65 °FLow clouds.9 mph97%30.12 "Hg10 mi
9:54 AM64 °FLow clouds.10 mph100%30.14 "Hg10 mi
8:54 AM65 °FDrizzle. Fog.9 mph97%30.11 "Hg1 mi
7:54 AM65 °FDrizzle. Fog.9 mph97%30.11 "Hg1 mi
6:54 AM64 °FDrizzle. Fog.8 mph100%30.11 "Hg3 mi
5:54 AM65 °FLow clouds.9 mph97%30.11 "Hg7 mi
4:54 AM65 °FLow clouds.7 mph97%30.11 "Hg8 mi
3:54 AM65 °FFog.5 mph97%30.12 "Hg6 mi
2:54 AM64 °FLow clouds.7 mph100%30.13 "Hg9 mi
1:54 AM65 °FFog.7 mph94%30.14 "Hg6 mi
12:54 AM65 °FLow clouds.8 mph94%30.15 "Hg10 mi
11:54 PM
Sun, Sep 25
65 °FFog.6 mph97%30.16 "Hg6 mi
10:54 PM66 °FOvercast.7 mph90%30.17 "Hg10 mi
9:54 PM67 °FOvercast.5 mph85%30.17 "Hg10 mi
Weather by CustomWeather, © 2016

See weather overviewHow to use our weather pages